CW9463 Weather Reports


Display with metric or nautical units.
time (UTC)temp
F
wind
direction
speed
MPH
gust
MPH
rain 1hr
in
rain 24hr
in
rain mn
in
humidity
%
barometer
mb
20260906121505 66 142 0.0 0.0 0.00 0.00 0.00 96 1017.0
20260906120106 66 142 0.0 0.0 0.00 0.00 0.00 95 1016.9
20260906114604 66 142 0.0 0.0 0.00 0.00 0.00 95 1016.6
20260906113048 66 142 0.0 0.0 0.00 0.00 0.00 95 1016.3
20260906111544 66 142 0.0 0.0 0.00 0.00 0.00 95 1016.3
20260906110038 66 142 0.0 0.0 0.00 0.00 0.00 95 1016.1
20260906104534 66 142 0.0 0.0 0.00 0.00 0.00 95 1015.8
20260906103032 67 142 0.0 0.0 0.00 0.00 0.00 95 1015.6
20260906101528 67 143 0.0 0.0 0.00 0.00 0.00 94 1015.5
20260906100026 67 142 0.0 0.0 0.00 0.00 0.00 94 1015.6
20260906094518 67 142 0.0 0.0 0.00 0.00 0.00 94 1015.3
20260906093022 67 142 0.0 0.0 0.00 0.00 0.00 94 1015.3
20260906091517 67 142 0.0 0.0 0.00 0.00 0.00 94 1015.4
20260906090011 68 142 0.0 0.0 0.00 0.00 0.00 94 1015.1
20260906084508 68 142 0.0 0.0 0.00 0.00 0.00 94 1015.3
20260906083011 68 142 0.0 0.0 0.00 0.00 0.00 93 1015.1
20260906081507 68 142 0.0 0.0 0.00 0.00 0.00 93 1015.2
20260906074553 69 142 0.0 0.0 0.00 0.00 0.00 92 1015.4
20260906073046 69 142 0.0 0.0 0.00 0.00 0.00 92 1015.5
20260906071542 70 142 0.0 0.0 0.00 0.00 0.00 91 1015.4
20260906070041 70 142 0.0 0.0 0.00 0.00 0.00 91 1015.6
20260906064540 71 142 0.0 0.0 0.00 0.00 0.00 91 1015.5
20260906063039 71 142 0.0 0.0 0.00 0.00 0.00 92 1015.6
20260906061539 71 142 0.0 0.0 0.00 0.00 0.00 91 1015.6
20260906060038 71 142 0.0 0.0 0.00 0.00 0.00 91 1015.6
20260906054541 71 142 0.0 0.0 0.00 0.00 0.00 90 1015.3
20260906053041 71 142 0.0 0.0 0.00 0.00 0.00 89 1015.3
20260906051536 72 142 0.0 0.0 0.00 0.00 0.00 88 1015.2
20260906050042 72 142 0.0 0.0 0.00 0.00 0.00 88 1015.1
20260906044533 72 202 0.0 0.0 0.00 0.00 0.00 88 1015.1
20260906043031 72 202 0.0 0.0 0.00 0.00 0.00 88 1014.8
20260906041527 72 202 0.0 0.0 0.00 0.00 0.00 88 1014.7
20260906040025 72 202 0.0 0.0 0.00 0.00 0.00 88 1014.4
20260906034525 72 189 0.0 0.0 0.00 0.00 0.00 87 1014.2
20260906033030 72 189 0.0 1.0 0.00 0.00 0.00 87 1014.3
20260906031532 72 189 0.0 1.0 0.00 0.00 0.00 87 1014.4
20260906030030 72 189 0.0 1.0 0.00 0.00 0.00 87 1014.2
20260906024529 72 14 0.0 4.0 0.00 0.00 0.00 87 1014.2
20260906023027 72 122 0.0 1.0 0.00 0.00 0.00 87 1014.3
20260906021524 72 285 0.0 2.0 0.00 0.00 0.00 87 1014.4
20260906020024 72 41 0.0 2.0 0.00 0.00 0.00 87 1014.2
20260906014527 72 173 0.0 1.0 0.00 0.00 0.00 87 1014.3
20260906013030 72 333 0.0 1.0 0.00 0.00 0.00 87 1014.2
20260906011519 72 117 0.0 1.0 0.00 0.00 0.00 87 1014.1
20260906010019 73 53 0.0 2.0 0.00 0.00 0.00 86 1014.2
20260906004516 74 103 0.0 1.0 0.00 0.00 0.00 86 1014.2
20260906003018 74 245 0.0 3.0 0.00 0.00 0.00 85 1013.8
20260906001518 75 103 0.0 1.0 0.00 0.00 0.00 84 1013.6
20260906000033 76 69 0.0 3.0 0.00 0.00 0.00 83 1013.2
20260905234508 77 54 0.0 2.0 0.00 0.00 0.00 82 1012.9
20260905233006 78 122 0.0 2.0 0.00 0.00 0.00 82 1012.9
20260905231506 78 122 0.0 0.0 0.00 0.00 0.00 81 1013.1
20260905230005 79 109 0.0 2.0 0.00 0.00 0.00 81 1012.7
20260905224505 79 109 0.0 0.0 0.00 0.00 0.00 79 1012.4
20260905223008 80 109 0.0 2.0 0.00 0.00 0.00 78 1012.5
20260905221504 80 30 0.0 0.0 0.00 0.00 0.00 79 1012.4
20260905220003 80 30 0.0 0.0 0.00 0.00 0.00 79 1012.3
20260905214501 81 28 0.0 4.0 0.00 0.00 0.00 81 1012.6
20260905213100 81 91 0.0 1.0 0.00 0.00 0.00 78 1012.5
20260905211556 82 192 0.0 2.0 0.00 0.00 0.00 79 1012.4
20260905210151 82 345 0.0 0.0 0.00 0.00 0.00 78 1012.6
20260905204555 82 355 0.0 1.0 0.00 0.00 0.00 79 1012.7
20260905203045 83 339 0.0 2.0 0.00 0.00 0.00 77 1012.8
20260905201544 83 57 0.0 3.0 0.00 0.00 0.00 78 1012.6
20260905200043 84 49 0.0 2.0 0.00 0.00 0.00 79 1012.6
20260905194542 83 103 0.0 1.0 0.00 0.00 0.00 78 1012.5
20260905193045 84 290 0.0 2.0 0.00 0.00 0.00 78 1012.5
20260905191644 85 59 0.0 2.0 0.00 0.00 0.00 77 1012.5
20260905190044 85 171 0.0 3.0 0.00 0.00 0.00 77 1012.5
20260905184606 85 78 0.0 1.0 0.00 0.00 0.00 78 1012.6
20260905183046 86 164 0.0 1.0 0.00 0.00 0.00 77 1012.7
20260905181546 87 22 0.0 3.0 0.00 0.00 0.00 76 1012.6
20260905180036 89 302 0.0 1.0 0.00 0.00 0.00 75 1012.6
20260905174532 89 355 0.0 1.0 0.00 0.00 0.00 73 1012.5
20260905173033 88 261 0.0 2.0 0.00 0.00 0.00 76 1012.5
20260905171529 88 45 0.0 2.0 0.00 0.00 0.00 76 1012.5
20260905170026 88 15 0.0 1.0 0.00 0.00 0.00 77 1012.8
20260905164526 87 269 0.0 2.0 0.00 0.00 0.00 76 1012.8
20260905163030 86 141 0.0 3.0 0.00 0.00 0.00 78 1012.8
20260905161529 85 218 0.0 1.0 0.00 0.00 0.00 81 1012.8
20260905160029 84 35 0.0 1.0 0.00 0.00 0.00 80 1013.0
20260905154521 83 252 0.0 1.0 0.00 0.00 0.00 83 1012.7
20260905153016 81 5 0.0 1.0 0.00 0.00 0.00 86 1012.8
20260905151512 80 155 0.0 1.0 0.00 0.00 0.00 88 1012.7
20260905150006 78 253 0.0 1.0 0.00 0.00 0.00 90 1012.6
20260905144506 77 244 0.0 1.0 0.00 0.00 0.00 90 1012.4
20260905143004 77 213 0.0 1.0 0.00 0.00 0.00 92 1012.5
20260905141503 76 38 0.0 2.0 0.00 0.00 0.00 94 1012.3
20260905140004 76 138 0.0 1.0 0.00 0.00 0.00 95 1012.1
20260905134504 76 297 0.0 0.0 0.00 0.00 0.00 96 1011.9
20260905133001 76 150 0.0 0.0 0.00 0.00 0.00 96 1012.0
20260905131503 76 150 0.0 0.0 0.00 0.00 0.00 96 1012.4
20260905130059 76 150 0.0 0.0 0.00 0.00 0.00 96 1011.7
20260905124557 75 150 0.0 0.0 0.00 0.00 0.00 96 1011.6